STARLINK-32289, 60737

Orbit data source: Space-Track

STARLINK-32289, 60737 is a payload satellite owned by SpaceX/Seattle (US) in LEO that was launched on Wed, 28 Aug 2024 UTC via an FALCON 9 launch vehicle from the Air Force Eastern Test Range (AFETR). Payload-class satellites include a variety of spacecraft equipped with specific instruments for various scientific and technological missions. These include communications satellites like Starlink; space stations such as the ISS; scientific satellites like the Hubble; Earth observation satellites from companies like Planet Labs, Umbra, and HawkEye 360; GPS; miniature CubeSats for education and research; and military/defense satellites.

Loading next visibility...
Identifier
60737, 2024-152T
Orbit
LEO
Country
Flag of USUS
Related business
Manufacturer
SpaceX/Seattle
Mission
Operational Commercial Communications
Bus & Motor
STARLINK V2M, Unknown motor
Mass
730 kg wet, ~700 kg dry
Launch date (UTC)
2024-08-28 (2 years ago)
Launch vehicle
FALCON 9
Launch site
Air Force Eastern Test Range (AFETR)
Object type
Payload
Rocket body
Debris
Shape & HBR
Box + 2 Pan, 17.7 m
Radar Cross Section
33.884 m², Large (>1 m²)

Expand to show TLE details & history
Last TLE update: 15 hours ago

TLE from 15 hours ago
0 STARLINK-32289
1 60737U 24152T   26126.07720520 -.00003739  00000-0 -11429-3 0  9991
2 60737  53.1610   2.1189 0001728  23.8328 336.2752 15.30170061 95631
Epoch: 2026-05-06T01:51Z
TLE epoch observation values (Epoch: 2026-05-06T01:51:10.529Z)
Latitude
-0.00005°
Longitude
110.38211°
Altitude
475.12 km
Speed
7.63 km/s
True Right ascension
00h 08m 28s
True Declination
0° 00' 00"
Sunlit
Object was in daylight at epoch
Visualization orbit readout
Latitude
Unknown
Longitude
Unknown
Altitude
Unknown
Speed
Unknown
Apparent Right ascension
Unknown
Apparent Declination
Unknown
Sunlit
N/A
Visualization observer readout
Local Sidereal Time
01:06:05
Azimuth
Unknown
Elevation
Unknown
Doppler factor
Unknown
Orbital elements
Apogee altitude
476.745 km
Perigee altitude
474.376 km
Semi-major axis
6,853.698 km
Eccentricity
0.00017
Inclination
53.161°
RAAN
2.1189°
Arg. of periapsis
23.8328°
True anomaly
336.26723°
Mean anomaly
336.2752°
Eccentric anomaly
336.27122°
Mean motion
3.82521 °/min
Orbital period
94.11 mins
BSTAR
-0.00011429
Loading maneuver chart data...
Computing Atmospheric mass density...
Loading historical data...
Loading historical data...
Loading historical data...
Loading historical data...
Loading historical data...
Loading historical data...
Loading historical data...

Documentation

Showing up to 5 results
|